[[{"header":{"parameterUnit":"m.s-1","parameterCategory":1,"la1":30.2991,"la2":30.254,"lo1":-89.0895,"lo2":-89.0444,"dy":0.0017,"dx":0.0017,"nx":28,"ny":28,"refTime":"2024-05-09T09:00:00:Z","depth":0,"parameterNumber":2,"parameterNumberName":"U-component_of_WINDS"},"data":[0,0,0,0,0,0,0,0,0,0,0,0,0,0,0,0,0,0,0,0,0,0,0,0,0,0,0,0,0,0,0,0,0,0,0,0,0,0,0,0,0,0,0,0,0,0,0,0,0,0,0,0,0,0,0,0,0,0,-1.3512,-1.3512,0,-1.3451,-1.345,-1.345,-1.3442,-1.3443,-1.3444,-1.3444,-1.337,-1.3367,-1.3365,0,0,0,0,0,0,0,0,0,0,0,0,0,-1.3613,-1.3611,-1.3512,-1.3512,-1.3511,-1.3451,-1.345,-1.3449,-1.3442,-1.3443,-1.3444,-1.3445,-1.3371,-1.3367,-1.3364,0,0,0,0,0,0,0,0,0,0,0,0,0,-1.3562,-1.361,-1.3512,-1.35,-1.3499,-1.3451,-1.345,-1.3449,-1.3442,-1.3443,-1.3444,-1.3445,-1.3372,-1.3368,-1.3364,-1.3321,0,0,-1.3352,-1.335,0,0,0,0,0,0,0,0,-1.3565,-1.3558,-1.3503,-1.3501,-1.3499,-1.3456,-1.3458,-1.3406,-1.3442,-1.3463,-1.3444,-1.3445,-1.3397,-1.3391,-1.3377,-1.3317,-1.3314,-1.3352,-1.3349,-1.3348,-1.3347,0,0,0,0,0,0,0,-1.3568,-1.356,-1.3488,-1.3502,-1.35,-1.3494,-1.3488,-1.3448,-1.3425,-1.3461,-1.3461,-1.3454,-1.3396,-1.3381,-1.3375,-1.3313,-1.3352,-1.3348,-1.3346,-1.3344,-1.3213,-1.3212,0,0,0,0,0,0,-1.3575,-1.3564,-1.349,-1.3486,-1.3535,-1.3492,-1.3485,-1.3468,-1.3425,-1.342,-1.3454,-1.3454,-1.3387,-1.338,-1.3372,-1.3318,-1.3348,-1.3344,-1.3342,-1.3214,-1.3212,-1.3211,0,0,0,0,0,0,-1.3578,-1.3569,-1.3492,-1.3525,-1.3515,-1.3489,-1.3471,-1.3467,-1.3452,-1.342,-1.3414,-1.3443,-1.3387,-1.3378,-1.3334,-1.3315,-1.3342,-1.3339,-1.3215,-1.3213,-1.3212,-1.3209,0,0,0,0,0,0,-1.3581,-1.357,-1.3556,-1.3525,-1.3513,-1.3458,-1.347,-1.3465,-1.3446,-1.3447,-1.3408,-1.3403,-1.3387,-1.334,-1.333,-1.331,-1.3336,-1.3217,-1.3214,-1.3212,-1.3211,-1.3208,-1.3205,0,0,0,0,0,-1.3584,-1.3555,-1.3555,-1.3546,-1.3495,-1.3457,-1.345,-1.3436,-1.3445,-1.3429,-1.3408,-1.3404,-1.3319,-1.3336,-1.3325,-1.3303,-1.3218,-1.3215,-1.3213,-1.3212,-1.3208,-1.3205,0,0,0,0,0,0,-1.3581,-1.3551,-1.355,-1.3511,-1.3487,-1.3456,-1.3436,-1.3433,-1.3403,-1.3404,-1.3384,-1.3376,-1.3332,-1.3313,-1.3332,-1.3258,-1.3269,-1.3264,-1.3272,-1.3268,-1.3265,-1.327,-1.3333,0,0,0,0,0,-1.3576,-1.3552,-1.3525,-1.3493,-1.3481,-1.3461,-1.3444,-1.3435,-1.3408,-1.3397,-1.3373,-1.3344,-1.331,-1.3288,-1.3256,-1.3209,-1.3198,-1.3188,-1.3185,-1.3183,-1.3178,-1.3149,-1.3144,-1.3202,-1.3203,-1.3203,0,0,-1.3565,-1.3545,-1.353,-1.3492,-1.3472,-1.3444,-1.3452,-1.3421,-1.3399,-1.3391,-1.3349,-1.3331,-1.3296,-1.325,-1.3229,-1.3233,-1.316,-1.3179,-1.3178,-1.3174,-1.3146,-1.3141,-1.3136,-1.3201,-1.3201,-1.3201,0,0,-1.353,-1.3514,-1.3485,-1.3466,-1.3438,-1.3425,-1.3418,-1.3387,-1.3376,-1.3335,-1.3328,-1.3299,-1.3242,-1.3218,-1.3198,-1.3154,-1.3148,-1.3144,-1.3127,-1.31,-1.3095,-1.3091,-1.3073,-1.3067,-1.3139,-1.3139,-1.3139,0,-1.3518,-1.3479,-1.3469,-1.344,-1.3421,-1.3417,-1.3386,-1.3367,-1.3328,-1.3314,-1.332,-1.3249,-1.3226,-1.3173,-1.3163,-1.3148,-1.3136,-1.3147,-1.3097,-1.3093,-1.3089,-1.3071,-1.3065,-1.3139,-1.3139,-1.3139,-1.3139,0,-1.3465,-1.3437,-1.3416,-1.3384,-1.3363,-1.3332,-1.3315,-1.3295,-1.3289,-1.3273,-1.323,-1.3202,-1.3163,-1.3151,-1.3142,-1.3096,-1.31,-1.3102,-1.3112,-1.3083,-1.3066,-1.306,-1.3138,-1.3139,-1.3139,-1.3139,0,0,-1.3424,-1.3388,-1.338,-1.3365,-1.3334,-1.331,-1.3278,-1.3245,-1.3227,-1.32,-1.317,-1.3123,-1.3125,-1.3103,-1.3092,-1.3068,-1.3033,-1.3073,-1.3071,-1.3064,-1.2977,-1.2975,-1.2968,-1.303,-1.3028,-1.3027,-1.298,0,-1.3384,-1.3331,-1.3322,-1.3274,-1.3247,-1.3243,-1.3215,-1.319,-1.3175,-1.3147,-1.3129,-1.3095,-1.3102,-1.3088,-1.3064,-1.3042,-1.3014,-1.3046,-1.2998,-1.2996,-1.3005,-1.2959,-1.2956,-1.2913,-1.2973,-1.2972,-1.2971,0,-1.333,-1.3306,-1.3257,-1.323,-1.3218,-1.3193,-1.3161,-1.3136,-1.3107,-1.3097,-1.3073,-1.3065,-1.3027,-1.3041,-1.2987,-1.3009,-1.2988,-1.2974,-1.2972,-1.2965,-1.2981,-1.2949,-1.2899,-1.2892,-1.2961,-1.2962,-1.2963,0,-1.3303,-1.3258,-1.3223,-1.321,-1.3178,-1.316,-1.3145,-1.3118,-1.3098,-1.3069,-1.3055,-1.302,-1.3,-1.2972,-1.2953,-1.2965,-1.29,-1.2912,-1.2887,-1.2888,-1.2872,-1.2873,-1.2816,-1.2862,-1.2863,-1.2863,-1.2863,0,-1.3259,-1.3228,-1.3211,-1.3189,-1.3153,-1.3142,-1.3106,-1.309,-1.3066,-1.3038,-1.3031,-1.3004,-1.2982,-1.2951,-1.2935,-1.2892,-1.2883,-1.2871,-1.2867,-1.2871,-1.2872,-1.2856,-1.2857,-1.2861,-1.2861,-1.2862,-1.2862,0,-1.3222,-1.321,-1.3171,-1.3145,-1.3137,-1.3112,-1.3087,-1.3064,-1.3049,-1.3014,-1.3004,-1.298,-1.2943,-1.2922,-1.2874,-1.2864,-1.2814,-1.2813,-1.2825,-1.2823,-1.2799,-1.2801,-1.2727,-1.2716,-1.2772,-1.2772,-1.2772,0,-1.3194,-1.3171,-1.3143,-1.3126,-1.3112,-1.3084,-1.3064,-1.3051,-1.3031,-1.2997,-1.2976,-1.294,-1.291,-1.285,-1.2825,-1.2788,-1.2783,-1.2761,-1.2777,-1.2782,-1.278,-1.2781,-1.2778,-1.2757,-1.2756,-1.2756,-1.2755,0,-1.3144,-1.3139,-1.3114,-1.3086,-1.3065,-1.3041,-1.3017,-1.3002,-1.2985,-1.2961,-1.2926,-1.2903,-1.2856,-1.2818,-1.2779,-1.2759,-1.2752,-1.2751,-1.2743,-1.2745,-1.2753,-1.2746,-1.2815,-1.2752,-1.2752,-1.2752,-1.2753,-1.2753,-1.3109,-1.3088,-1.3066,-1.3037,-1.3019,-1.2997,-1.2974,-1.2958,-1.293,-1.2893,-1.2886,-1.2847,-1.2817,-1.2765,-1.2744,-1.2711,-1.2714,-1.2703,-1.27,-1.2697,-1.2695,-1.2761,-1.2703,-1.2704,-1.2704,-1.2704,-1.2704,0,-1.3057,-1.3043,-1.3017,-1.2987,-1.2963,-1.2965,-1.2939,-1.2918,-1.2886,-1.286,-1.2832,-1.279,-1.2753,-1.2727,-1.2688,-1.2667,-1.2663,-1.2657,-1.2657,-1.2652,-1.2695,-1.2705,-1.2661,-1.2661,-1.2661,-1.2661,-1.2661,-1.2661,-1.3027,-1.2992,-1.2985,-1.2939,-1.2923,-1.2889,-1.2874,-1.2852,-1.2832,-1.2787,-1.2758,-1.2743,-1.2716,-1.2676,-1.2641,-1.2634,-1.2618,-1.2613,-1.2604,-1.2644,-1.2649,-1.2653,-1.2663,-1.261,-1.261,-1.2564,-1.2564,-1.2563]},{"header":{"parameterUnit":"m.s-1","parameterCategory":1,"la1":30.2991,"la2":30.254,"lo1":-89.0895,"lo2":-89.0444,"dy":0.0017,"dx":0.0017,"nx":28,"ny":28,"refTime":"2024-05-09T09:00:00:Z","depth":0,"parameterNumber":3,"parameterNumberName":"V-component_of_WINDS"},"data":[0,0,0,0,0,0,0,0,0,0,0,0,0,0,0,0,0,0,0,0,0,0,0,0,0,0,0,0,0,0,0,0,0,0,0,0,0,0,0,0,0,0,0,0,0,0,0,0,0,0,0,0,0,0,0,0,0,0,6.5552,6.5553,0,6.5658,6.5659,6.566,6.5565,6.5562,6.5558,6.5554,6.5661,6.5668,6.5674,0,0,0,0,0,0,0,0,0,0,0,0,0,6.5264,6.527,6.5552,6.5553,6.5554,6.5658,6.5659,6.566,6.5566,6.5561,6.5557,6.5552,6.5659,6.5667,6.5675,0,0,0,0,0,0,0,0,0,0,0,0,0,6.5382,6.5272,6.5551,6.552,6.5518,6.5657,6.5659,6.5661,6.5567,6.5561,6.5555,6.555,6.5657,6.5666,6.5676,6.5852,0,0,6.5705,6.571,0,0,0,0,0,0,0,0,6.5375,6.5392,6.5523,6.5522,6.552,6.5592,6.5597,6.5725,6.5569,6.5548,6.5554,6.5547,6.5643,6.5654,6.5686,6.5857,6.5861,6.5706,6.5712,6.5716,6.5719,0,0,0,0,0,0,0,6.5367,6.5387,6.5593,6.5525,6.5523,6.5499,6.5509,6.5621,6.5627,6.555,6.5543,6.5557,6.5641,6.5677,6.5688,6.5863,6.5706,6.5715,6.5721,6.5724,6.618,6.6186,0,0,0,0,0,0,6.5363,6.5381,6.559,6.5597,6.5432,6.5509,6.552,6.5575,6.5625,6.5628,6.5562,6.5552,6.5663,6.5677,6.5691,6.5899,6.5716,6.5725,6.5731,6.6173,6.6181,6.6188,0,0,0,0,0,0,6.5357,6.5382,6.5586,6.5487,6.5511,6.552,6.5582,6.558,6.5616,6.5635,6.5635,6.5598,6.5659,6.5678,6.5812,6.5901,6.573,6.5738,6.6166,6.6176,6.6184,6.6316,0,0,0,0,0,0,6.5349,6.5381,6.5449,6.5489,6.5517,6.5706,6.5588,6.5587,6.5633,6.5621,6.5668,6.567,6.5656,6.5798,6.5822,6.5911,6.5746,6.6158,6.617,6.6181,6.6304,6.6329,6.6351,0,0,0,0,0,6.5339,6.5482,6.5453,6.5478,6.5602,6.5711,6.5727,6.5708,6.5641,6.5708,6.572,6.5669,6.5888,6.5812,6.5838,6.5933,6.6152,6.6167,6.6181,6.6294,6.6324,6.635,0,0,0,0,0,0,6.5451,6.5487,6.5455,6.5615,6.5661,6.5695,6.578,6.5742,6.5807,6.5794,6.5767,6.5778,6.592,6.5939,6.5855,6.6104,6.6009,6.6029,6.6086,6.6115,6.6138,6.613,6.5754,0,0,0,0,0,6.5495,6.5582,6.5607,6.5746,6.5771,6.5772,6.5819,6.58,6.5846,6.5865,6.5887,6.5933,6.6012,6.6064,6.6138,6.6306,6.6314,6.6383,6.6407,6.6426,6.6443,6.6531,6.6562,6.6234,6.6234,6.6234,0,0,6.5585,6.5615,6.5672,6.5769,6.5803,6.5892,6.5789,6.5888,6.5954,6.588,6.6008,6.6025,6.6075,6.6226,6.6294,6.6247,6.6535,6.6444,6.6459,6.6466,6.6549,6.658,6.6607,6.6244,6.6242,6.6241,0,0,6.5796,6.5828,6.5946,6.5982,6.6033,6.6033,6.6061,6.6101,6.611,6.6237,6.6183,6.626,6.6397,6.6434,6.6471,6.6693,6.6648,6.6718,6.684,6.6926,6.6951,6.6974,6.7052,6.7081,6.6735,6.6736,6.6736,0,6.5902,6.6036,6.6012,6.6115,6.6159,6.6096,6.6214,6.6249,6.6323,6.6354,6.63,6.6469,6.6498,6.6656,6.671,6.6743,6.6773,6.6713,6.695,6.6972,6.6993,6.7067,6.7097,6.6744,6.6743,6.6742,6.6741,0,6.6163,6.6256,6.6345,6.6417,6.647,6.6581,6.6573,6.6629,6.6605,6.661,6.6739,6.6772,6.685,6.6886,6.6864,6.7041,6.701,6.6954,6.6858,6.7033,6.7102,6.713,6.6755,6.6752,6.675,6.6748,0,0,6.6449,6.6505,6.6538,6.6569,6.662,6.6691,6.6797,6.6874,6.6922,6.6974,6.7062,6.7178,6.7125,6.7167,6.7148,6.7224,6.7396,6.7158,6.7159,6.72,6.759,6.7632,6.7666,6.7366,6.7371,6.7376,6.7586,0,6.6661,6.6847,6.6827,6.7004,6.7088,6.7028,6.712,6.7161,6.7167,6.7239,6.7245,6.7328,6.7253,6.7277,6.735,6.736,6.7474,6.7344,6.7446,6.745,6.7435,6.7702,6.7747,6.7944,6.7613,6.7617,6.7621,0,6.6934,6.6995,6.7179,6.7215,6.725,6.7334,6.7401,6.747,6.7514,6.7513,6.7559,6.7526,6.7631,6.7533,6.7676,6.7589,6.7629,6.764,6.7647,6.7656,6.7546,6.7717,6.8007,6.8036,6.7663,6.766,6.7657,0,6.7123,6.7251,6.7377,6.7406,6.7451,6.7511,6.7533,6.7571,6.7617,6.7675,6.7705,6.7775,6.7813,6.7867,6.7854,6.7784,6.8,6.7901,6.8001,6.8002,6.805,6.8047,6.8349,6.8077,6.8076,6.8076,6.8075,0,6.7361,6.7477,6.7463,6.7541,6.7667,6.7643,6.7768,6.7782,6.7816,6.7894,6.7846,6.7921,6.7898,6.7971,6.7961,6.808,6.8098,6.8099,6.8095,6.8104,6.8103,6.813,6.8115,6.8084,6.8082,6.808,6.8079,0,6.7595,6.759,6.7724,6.7755,6.7766,6.7857,6.7884,6.7956,6.7957,6.8057,6.8079,6.8081,6.8164,6.8156,6.8249,6.8242,6.839,6.8369,6.8375,6.8371,6.8471,6.8461,6.8801,6.8843,6.8544,6.8546,6.8549,0,6.7748,6.7835,6.7875,6.7924,6.7949,6.8029,6.8076,6.8054,6.8105,6.816,6.8225,6.8304,6.8365,6.85,6.851,6.858,6.8561,6.8675,6.8571,6.8576,6.8561,6.8556,6.8564,6.8695,6.8699,6.8701,6.8704,0,6.8019,6.8012,6.8081,6.815,6.8206,6.8259,6.8307,6.8349,6.8332,6.8391,6.8475,6.8523,6.8617,6.8695,6.8761,6.8781,6.874,6.8736,6.8763,6.8772,6.8772,6.8772,6.843,6.8728,6.8726,6.8724,6.8723,6.8722,6.8216,6.829,6.8329,6.8407,6.844,6.8486,6.8555,6.8564,6.8634,6.8709,6.8691,6.8786,6.8824,6.8909,6.8936,6.9009,6.8967,6.9006,6.9016,6.9026,6.9037,6.876,6.9021,6.902,6.9019,6.9019,6.9018,0,6.8484,6.8506,6.8578,6.8646,6.8707,6.8661,6.8711,6.8765,6.8849,6.8888,6.895,6.9045,6.912,6.9134,6.9205,6.926,6.9243,6.9279,6.9275,6.928,6.9071,6.904,6.9292,6.9292,6.9292,6.9292,6.9292,6.9292,6.8631,6.8753,6.875,6.8886,6.8906,6.8999,6.9031,6.9071,6.9103,6.9211,6.9273,6.9282,6.9311,6.9383,6.9449,6.9451,6.9479,6.9523,6.9518,6.9322,6.9295,6.9269,6.924,6.953,6.953,6.9721,6.9722,6.9724]}]]